Tracking 31023 objects as of 19-Jul-2025
HD Live streaming from Space Station
objects crossing your sky now

FREGAT DEB

Track FREGAT DEB now!
10-day predictions


NORAD ID: 46243
Int'l Code: 2011-037KD
Perigee: 1,421.7 km
Apogee: 4,084.8 km
Inclination: 51.9 °
Period: 144.6 minutes
Semi major axis: 9124 km
RCS: Unknown
Launch date: July 18, 2011
Source: Commonwealth of Independent States (former USSR) (CIS)
Launch site: TYURATAM MISSILE AND SPACE COMPLEX (TTMTR)

Note: This is SATELLITE DEBRIS
Your satellite tracking list
Your tracking list is empty




NASA's NSSDC Master Catalog

Two Line Element Set (TLE):
1 46243U 11037KD  25194.91147625 -.00007357  00000-0 -19439+0 0  9996
2 46243  51.9267  33.1400 1459391 200.1602 153.5192  9.96108730174512
Source of the keplerian elements: AFSPC